Location: Mt. Bigelow
(32.4165°N, 110.7345°W)
Time: 13:45:29
(UTC-07:00)

Tiangong 1 - Visible Passes

Search period start: 22 February 2018 00:00
Search period end: 04 March 2018 00:00
Orbit: 247 x 268 km, 42.8° (Epoch: 22 February)

Date Brightness Start Highest point End Pass type
(mag) Time Alt. Az. Time Alt. Az. Time Alt. Az.
27 Feb 2.8 18:41:40 10° SSE 18:42:11 11° SE 18:42:43 10° SE visible
28 Feb 4.0 20:06:14 10° W 20:06:33 12° W 20:06:33 12° W visible
01 Mar 3.5 19:58:46 10° WNW 19:59:27 14° NW 19:59:27 14° NW visible
02 Mar 3.3 19:51:15 10° NW 19:52:01 12° NNW 19:52:01 12° NNW visible
03 Mar 3.4 19:43:59 10° NNW 19:44:12 10° NNW 19:44:16 10° NNW visible
